Location: Bocianicha
(51.5066°N, 19.2563°E)
Time: 13:30:57
(UTC+00:00)

Cosmos 1092 Rocket - Pass Details

Date: 15 June 2025
Orbit: 954 x 994 km, 82.9° (Epoch: 17 July)

Event Time Altitude Azimuth Distance (km) Brightness Sun altitude
Exits shadow 00:41:33 11° 183° (S) 2,686 5.7 -10.8°
Maximum altitude 00:47:42 81° 98° (E) 1,005 4.1 -10.4°
Drops below altitude 10° 00:54:04 10° 12° (NNE) 2,767 7.7 -9.9°
Sets 00:56:36 0° 11° (NNE) 3,723 8.6 -9.7°
